Regional Weather Roundup
Issued by NWS Albany, NY

Home | Current Version | Previous Version | Text Only | Print | Product List | Glossary On
Versions: 1 2 3 4 5 6 7 8 9 10 11 12 13 14 15 16 17 18 19 20 21 22 23 24 25 26 27 28 29 30 31 32 33 34 35 36 37 38 39 40 41 42 43 44 45 46 47 48 49 50
000
ASUS41 KALY 040210
RWRALY

NEW YORK STATE HOURLY WEATHER ROUNDUP
NATIONAL WEATHER SERVICE ALBANY NY
1000 PM EDT MON AUG 03 2015

NOTE: "FAIR" INDICATES FEW OR NO CLOUDS BELOW 12,000 FEET WITH NO
SIGNIFICANT WEATHER AND/OR NO OBSTRUCTIONS TO VISIBILITY.

NYZ032-033-038>043-046>054-057>066-NYZ062>081-040300-
EAST


CITY           SKY/WX    TMP DP  RH WIND       PRES   REMARKS
ALBANY         TSTM      70  66  87 CALM      29.80R
GLENS FALLS    MOCLDY    70  62  76 S6        29.77R
POUGHKEEPSIE   CLEAR     75  63  66 CALM      29.78R
NEWBURGH       PTCLDY    79  63  57 SW6       29.81R
MONTGOMERY     CLEAR     73  64  73 SW7       29.81R
WHITE PLAINS   CLEAR     75  68  78 CALM      29.82R
ISLIP          PTCLDY    78  73  84 SW12      29.81R
NEW YORK CITY  MOCLDY    86  58  38 SW9       29.80R
CENTRAL PARK   CLEAR     84  57  39 VRB6      29.84R
$$

NYZ005>009-017-018-044>046-055-056-040300-
CENTRAL


CITY           SKY/WX    TMP DP  RH WIND       PRES   REMARKS
FULTON         MOCLDY    64  61  90 CALM      29.78R
SYRACUSE       MOCLDY    68  64  87 SE3       29.78R
ROME           CLEAR     65  63  93 E3        29.80R
ELMIRA         MOCLDY    70  64  81 NE5       29.81R
BINGHAMTON     PTCLDY    68  57  68 NW5       29.84R
MONTICELLO     CLEAR     70  66  88 SW7       29.86R
$$

NYZ026>034-041>043-040300-
NORTH


CITY           SKY/WX    TMP DP  RH WIND       PRES   REMARKS
WATERTOWN      PTCLDY    66  61  84 SW3       29.76R
FORT DRUM      NOT AVBL
MASSENA        CLEAR     63  58  83 S5        29.74R
SARANAC LAKE   PTCLDY    62  60  93 CALM      29.79R
PLATTSBURGH    MOCLDY    67  62  84 CALM      29.74R
$$

NYZ001>004-010>016-019>021-040300-
WEST


CITY           SKY/WX    TMP DP  RH WIND       PRES   REMARKS
NIAGARA FALLS  MOCLDY    70  60  70 W10       29.79R
BUFFALO        MOCLDY    71  61  70 W8        29.80R
DUNKIRK        PTCLDY    68  63  84 VRB3      29.81R
JAMESTOWN      MOCLDY    66  59  77 NW3       29.85F
WELLSVILLE     PTCLDY    69  56  62 SW5       29.89R
ROCHESTER      PTCLDY    70  59  68 W7        29.80R
PENN YAN       CLEAR     68  64  87 S3        29.82R
$$

             KEY
       WCI = WIND CHILL INDEX
       VSB = VISIBILITY
       HX  = HEAT INDEX
$$


USA.gov is the U.S. government's official web portal to all federal, state and local government web resources and services.